CZ-6A DEB, 61500

Orbit data source: Space-Track

CZ-6A DEB, 61500 is space debris in LEO originally from a launch on Tue, 06 Aug 2024 UTC launched from the Taiyaun Space Center, China (TSC). Debris objects in space refer to the collection of defunct objects orbiting the Earth. Examples of debris include non-operational satellites, rocket bodies, and fragments generated from explosions, collisions, or faulty payload assembly.

Loading next visibility...
Identifier
61500, 2024-140ABJ
Orbit
LEO
Country
Flag of CNCN / PRC
Related business
Manufacturer
SAST
Mission
Spacecraft
Bus & Motor
Unknown
Mass
Unknown
Launch date (UTC)
2024-08-06 (2 years ago)
Launch vehicle
Unknown
Launch site
Taiyaun Space Center, China (TSC)
Object type
Payload
Rocket body
Debris
Shape & HBR
Unknown shape, 0.1 m
Radar Cross Section
Medium (>0.1 m² and <1 m²)

Expand to show TLE details & history
Last TLE update: 14 hours ago

TLE from 14 hours ago
0 CZ-6A DEB
1 61500U 24140ABJ 26171.25582959  .00002129  00000-0  10227-2 0  9993
2 61500  88.9799 273.3990 0075794 195.2898 164.6001 14.17076211 94349
Epoch: 2026-06-20T06:08Z
TLE epoch observation values (Epoch: 2026-06-20T06:08:23.676Z)
Latitude
0.00001°
Longitude
-87.17272°
Altitude
891.057 km
Speed
7.379 km/s
True Right ascension
18h 13m 35s
True Declination
0° 00' 00"
Sunlit
Object was in full shadow at epoch
Visualization orbit readout
Latitude
Unknown
Longitude
Unknown
Altitude
Unknown
Speed
Unknown
Apparent Right ascension
Unknown
Apparent Declination
Unknown
Sunlit
N/A
Visualization observer readout
Local Sidereal Time
07:24:27
Azimuth
Unknown
Elevation
Unknown
Doppler factor
Unknown
Orbital elements
Apogee altitude
886.863 km
Perigee altitude
777.563 km
Semi-major axis
7,210.35 km
Eccentricity
0.00758
Inclination
88.9799°
RAAN
273.399°
Arg. of periapsis
195.2898°
True anomaly
164.82865°
Mean anomaly
164.6001°
Eccentric anomaly
164.71458°
Mean motion
3.54494 °/min
Orbital period
101.55 mins
BSTAR
0.0010227
Loading maneuver chart data...
Computing Atmospheric mass density...
Loading historical data...
Loading historical data...
Loading historical data...
Loading historical data...
Loading historical data...
Loading historical data...
Loading historical data...

Documentation

Showing up to 5 results
|